View from above orbital plane
|
View from above satellite
|
Ground track
|
The orbit data is extracted from the following two-line orbital elements,
1 22286U 92094A 21016.65560814 .00000181 00000-0 16784-4 0 9999
2 22286 82.5187 218.6770 0022573 92.8160 267.5642 14.88219510496155
Epoch (UTC): | 16 January 2021 15:44:04 |
Eccentricity: | 0.0022573 |
inclination: | 82.5187° |
perigee height: | 588 km |
apogee height: | 619 km |
right ascension of ascending node: | 218.6770° |
argument of perigee: | 92.8160° |
revolutions per day: | 14.88219510 |
mean anomaly at epoch: | 267.5642° |
orbit number at epoch: | 49615 |
The dashed part of the orbit path shows where the satellite is in the earth's shadow,
|
|